[[{"header":{"parameterUnit":"m.s-1","parameterCategory":1,"la1":30.2991,"la2":30.254,"lo1":-89.0895,"lo2":-89.0444,"dy":0.0017,"dx":0.0017,"nx":28,"ny":28,"refTime":"2024-08-20T21:00:00:Z","depth":0,"parameterNumber":2,"parameterNumberName":"U-component_of_WINDS"},"data":[0,0,0,0,0,0,0,0,0,0,0,0,0,0,0,0,0,0,0,0,0,0,0,0,0,0,0,0,0,0,0,0,0,0,0,0,0,0,0,0,0,0,0,0,0,0,0,0,0,0,0,0,0,0,0,0,0,0,-0.5075,-0.5077,0,-0.5224,-0.5226,-0.5227,-0.526,-0.5259,-0.5258,-0.5257,-0.5412,-0.5417,-0.5423,0,0,0,0,0,0,0,0,0,0,0,0,0,-0.482,-0.4824,-0.5075,-0.5077,-0.5079,-0.5224,-0.5226,-0.5228,-0.526,-0.5259,-0.5258,-0.5256,-0.5411,-0.5417,-0.5423,0,0,0,0,0,0,0,0,0,0,0,0,0,-0.4946,-0.4826,-0.5075,-0.5112,-0.5117,-0.5223,-0.5226,-0.5228,-0.526,-0.5259,-0.5257,-0.5256,-0.5409,-0.5416,-0.5424,-0.5504,0,0,-0.5448,-0.5451,0,0,0,0,0,0,0,0,-0.4939,-0.4955,-0.5105,-0.511,-0.5115,-0.5222,-0.5193,-0.5321,-0.5261,-0.5206,-0.5257,-0.5255,-0.535,-0.5363,-0.5395,-0.5512,-0.5518,-0.5448,-0.5453,-0.5456,-0.5458,0,0,0,0,0,0,0,-0.493,-0.4949,-0.5134,-0.5107,-0.5113,-0.5122,-0.5138,-0.5217,-0.5286,-0.5211,-0.5213,-0.523,-0.5353,-0.5387,-0.5398,-0.5521,-0.5448,-0.5455,-0.546,-0.5463,-0.5709,-0.5711,0,0,0,0,0,0,-0.4914,-0.4942,-0.5129,-0.5138,-0.5021,-0.5128,-0.5146,-0.5189,-0.5285,-0.5298,-0.5232,-0.5231,-0.5375,-0.5389,-0.5404,-0.5503,-0.5456,-0.5463,-0.5468,-0.5707,-0.571,-0.5712,0,0,0,0,0,0,-0.4909,-0.4931,-0.5123,-0.5041,-0.5066,-0.5134,-0.5182,-0.5193,-0.5227,-0.5301,-0.5313,-0.5254,-0.5374,-0.5393,-0.5479,-0.5509,-0.5467,-0.5474,-0.5705,-0.5708,-0.5711,-0.5703,0,0,0,0,0,0,-0.4901,-0.4929,-0.496,-0.5041,-0.507,-0.5195,-0.5184,-0.5197,-0.524,-0.5241,-0.5325,-0.5337,-0.5374,-0.5467,-0.5486,-0.5519,-0.548,-0.5703,-0.5707,-0.571,-0.5701,-0.5705,-0.5709,0,0,0,0,0,-0.4892,-0.4953,-0.4961,-0.4983,-0.511,-0.5196,-0.5213,-0.5254,-0.5242,-0.5274,-0.5321,-0.5334,-0.5503,-0.5475,-0.5497,-0.5533,-0.5701,-0.5705,-0.571,-0.5699,-0.5705,-0.5709,0,0,0,0,0,0,-0.4874,-0.4964,-0.4974,-0.5063,-0.5121,-0.5202,-0.5243,-0.5258,-0.5322,-0.5321,-0.5369,-0.5388,-0.547,-0.551,-0.5478,-0.5615,-0.5601,-0.561,-0.5586,-0.5592,-0.5596,-0.5584,-0.5486,0,0,0,0,0,-0.488,-0.4942,-0.5018,-0.5088,-0.5117,-0.5175,-0.5214,-0.524,-0.5303,-0.5329,-0.5382,-0.5444,-0.551,-0.5553,-0.5619,-0.5707,-0.5725,-0.5742,-0.5746,-0.5749,-0.5757,-0.5805,-0.5813,-0.5726,-0.5726,-0.5726,0,0,-0.4894,-0.4951,-0.4987,-0.5086,-0.5135,-0.5198,-0.5196,-0.5263,-0.5311,-0.5339,-0.5422,-0.5464,-0.5536,-0.5622,-0.5663,-0.5658,-0.5784,-0.5755,-0.5757,-0.5762,-0.581,-0.5818,-0.5825,-0.5729,-0.5728,-0.5728,0,0,-0.4951,-0.5,-0.5064,-0.5112,-0.5185,-0.5223,-0.5238,-0.5316,-0.5344,-0.5428,-0.545,-0.5507,-0.5622,-0.5671,-0.5712,-0.5785,-0.58,-0.5805,-0.5827,-0.5874,-0.588,-0.5887,-0.5912,-0.5921,-0.5812,-0.5812,-0.5812,0,-0.4959,-0.5055,-0.5095,-0.5161,-0.5204,-0.5231,-0.5296,-0.5341,-0.5432,-0.5461,-0.5454,-0.5596,-0.5647,-0.5744,-0.5762,-0.5794,-0.5813,-0.5796,-0.5876,-0.5883,-0.5889,-0.5914,-0.5924,-0.5812,-0.5812,-0.5812,-0.5812,0,-0.5061,-0.5126,-0.5169,-0.5255,-0.5302,-0.5367,-0.5418,-0.5461,-0.5482,-0.5521,-0.5605,-0.5666,-0.5744,-0.5769,-0.5792,-0.587,-0.5864,-0.5866,-0.5853,-0.5897,-0.5921,-0.5931,-0.5813,-0.5813,-0.5813,-0.5813,0,0,-0.5112,-0.5217,-0.5232,-0.5271,-0.5352,-0.5404,-0.547,-0.5545,-0.558,-0.5642,-0.5698,-0.5793,-0.5794,-0.584,-0.5868,-0.5909,-0.5962,-0.5905,-0.5908,-0.5913,-0.6051,-0.6049,-0.6059,-0.5972,-0.5974,-0.5975,-0.6045,0,-0.5179,-0.5296,-0.5334,-0.5432,-0.5493,-0.5518,-0.5576,-0.5632,-0.5669,-0.5727,-0.5768,-0.5834,-0.5832,-0.5859,-0.5901,-0.5946,-0.599,-0.5942,-0.6025,-0.6027,-0.6005,-0.6072,-0.6071,-0.6133,-0.6054,-0.6056,-0.6057,0,-0.5272,-0.5333,-0.5437,-0.5509,-0.5536,-0.5587,-0.5658,-0.5712,-0.5776,-0.58,-0.585,-0.5874,-0.5944,-0.5927,-0.6023,-0.5989,-0.6025,-0.6053,-0.6056,-0.6065,-0.6045,-0.6083,-0.6154,-0.6163,-0.6073,-0.6072,-0.607,0,-0.5298,-0.5407,-0.5482,-0.5514,-0.5601,-0.5636,-0.5674,-0.5736,-0.5778,-0.584,-0.5867,-0.5937,-0.5975,-0.6028,-0.607,-0.6054,-0.6163,-0.6149,-0.6185,-0.6183,-0.6207,-0.6205,-0.6285,-0.623,-0.623,-0.623,-0.623,0,-0.5368,-0.5431,-0.5495,-0.5541,-0.5612,-0.5654,-0.5723,-0.5762,-0.5817,-0.5872,-0.5899,-0.5949,-0.6002,-0.606,-0.6094,-0.6168,-0.6185,-0.6206,-0.6214,-0.6204,-0.6201,-0.6228,-0.6224,-0.6232,-0.6232,-0.6231,-0.6231,0,-0.5409,-0.5455,-0.5539,-0.5613,-0.5633,-0.5681,-0.5745,-0.5792,-0.5829,-0.5898,-0.5916,-0.5976,-0.6045,-0.6092,-0.6182,-0.6204,-0.6284,-0.6292,-0.6262,-0.6266,-0.6298,-0.6294,-0.6398,-0.6414,-0.6349,-0.635,-0.635,0,-0.5451,-0.5499,-0.5578,-0.5616,-0.5653,-0.5714,-0.5757,-0.58,-0.5843,-0.5919,-0.5955,-0.6026,-0.6085,-0.6194,-0.6246,-0.6314,-0.6323,-0.6354,-0.6333,-0.632,-0.6322,-0.6319,-0.6323,-0.6358,-0.6358,-0.6359,-0.6359,0,-0.552,-0.5539,-0.5599,-0.5666,-0.5715,-0.577,-0.5826,-0.5855,-0.5908,-0.5955,-0.6025,-0.6071,-0.6161,-0.623,-0.6303,-0.6342,-0.6359,-0.6365,-0.6377,-0.6366,-0.6346,-0.6356,-0.627,-0.6363,-0.6362,-0.6362,-0.6362,-0.6362,-0.5562,-0.5605,-0.5667,-0.5732,-0.5778,-0.5828,-0.5875,-0.5917,-0.5977,-0.6052,-0.6075,-0.6147,-0.6209,-0.6308,-0.6348,-0.6406,-0.6403,-0.642,-0.6425,-0.6428,-0.6427,-0.6337,-0.6419,-0.6419,-0.6419,-0.6419,-0.6419,0,-0.5631,-0.5672,-0.5731,-0.5807,-0.5858,-0.5868,-0.5929,-0.5971,-0.6035,-0.609,-0.6147,-0.6227,-0.6294,-0.635,-0.6419,-0.6455,-0.6464,-0.6471,-0.6469,-0.6478,-0.6426,-0.6409,-0.6462,-0.6462,-0.6462,-0.6462,-0.6462,-0.6462,-0.5673,-0.5747,-0.5774,-0.587,-0.591,-0.5981,-0.6015,-0.6062,-0.6106,-0.6194,-0.6249,-0.6285,-0.634,-0.6413,-0.6475,-0.649,-0.6514,-0.6519,-0.6536,-0.6486,-0.6482,-0.6477,-0.6461,-0.6524,-0.6524,-0.6582,-0.6583,-0.6583]},{"header":{"parameterUnit":"m.s-1","parameterCategory":1,"la1":30.2991,"la2":30.254,"lo1":-89.0895,"lo2":-89.0444,"dy":0.0017,"dx":0.0017,"nx":28,"ny":28,"refTime":"2024-08-20T21:00:00:Z","depth":0,"parameterNumber":3,"parameterNumberName":"V-component_of_WINDS"},"data":[0,0,0,0,0,0,0,0,0,0,0,0,0,0,0,0,0,0,0,0,0,0,0,0,0,0,0,0,0,0,0,0,0,0,0,0,0,0,0,0,0,0,0,0,0,0,0,0,0,0,0,0,0,0,0,0,0,0,-3.0905,-3.0905,0,-3.0891,-3.0891,-3.089,-3.0843,-3.0842,-3.0841,-3.084,-3.0825,-3.0825,-3.0826,0,0,0,0,0,0,0,0,0,0,0,0,0,-3.089,-3.089,-3.0905,-3.0905,-3.0905,-3.0891,-3.0891,-3.089,-3.0844,-3.0842,-3.0841,-3.084,-3.0825,-3.0825,-3.0826,0,0,0,0,0,0,0,0,0,0,0,0,0,-3.0888,-3.0891,-3.0905,-3.088,-3.0877,-3.0891,-3.0891,-3.089,-3.0844,-3.0842,-3.0841,-3.0839,-3.0824,-3.0825,-3.0826,-3.0863,0,0,-3.0829,-3.0829,0,0,0,0,0,0,0,0,-3.0888,-3.0889,-3.0884,-3.0882,-3.0879,-3.0867,-3.0879,-3.0881,-3.0844,-3.0857,-3.084,-3.0839,-3.084,-3.084,-3.084,-3.0862,-3.0861,-3.0829,-3.0829,-3.0829,-3.083,0,0,0,0,0,0,0,-3.0888,-3.0889,-3.0899,-3.0884,-3.0881,-3.0868,-3.0866,-3.0879,-3.0857,-3.0855,-3.0852,-3.0851,-3.0838,-3.084,-3.084,-3.0861,-3.0829,-3.0829,-3.083,-3.083,-3.0909,-3.091,0,0,0,0,0,0,-3.0892,-3.0889,-3.09,-3.0899,-3.088,-3.087,-3.0868,-3.0873,-3.0857,-3.0853,-3.0852,-3.0849,-3.0839,-3.0839,-3.0839,-3.0879,-3.0829,-3.083,-3.0831,-3.0907,-3.0909,-3.0911,0,0,0,0,0,0,-3.0892,-3.0894,-3.09,-3.0893,-3.0893,-3.0872,-3.0878,-3.0873,-3.0874,-3.0855,-3.085,-3.0858,-3.0838,-3.0838,-3.0856,-3.0877,-3.0831,-3.0831,-3.0905,-3.0908,-3.091,-3.096,0,0,0,0,0,0,-3.0892,-3.0894,-3.0908,-3.0894,-3.0894,-3.0919,-3.0879,-3.0874,-3.0876,-3.0871,-3.0859,-3.0855,-3.0836,-3.0855,-3.0857,-3.0878,-3.0832,-3.0903,-3.0906,-3.0909,-3.0956,-3.0964,-3.097,0,0,0,0,0,-3.0892,-3.0923,-3.0909,-3.0911,-3.0911,-3.0921,-3.092,-3.0899,-3.0878,-3.0891,-3.0879,-3.0855,-3.0875,-3.0858,-3.0859,-3.0881,-3.0902,-3.0906,-3.0909,-3.0953,-3.0962,-3.097,0,0,0,0,0,0,-3.0941,-3.0921,-3.0905,-3.0933,-3.0929,-3.0913,-3.0929,-3.0909,-3.0911,-3.0906,-3.0879,-3.0876,-3.0898,-3.0892,-3.0873,-3.0914,-3.0885,-3.0889,-3.0917,-3.0926,-3.0933,-3.0933,-3.0833,0,0,0,0,0,-3.0955,-3.0965,-3.0947,-3.0973,-3.0972,-3.0951,-3.0954,-3.0938,-3.0932,-3.093,-3.0918,-3.0913,-3.0918,-3.0922,-3.0925,-3.0955,-3.095,-3.097,-3.0977,-3.0983,-3.0986,-3.0999,-3.1007,-3.0923,-3.0923,-3.0923,0,0,-3.0984,-3.0975,-3.0982,-3.0983,-3.0977,-3.0987,-3.095,-3.0962,-3.0968,-3.0932,-3.0948,-3.094,-3.0932,-3.0956,-3.0966,-3.0951,-3.1009,-3.0988,-3.0992,-3.0992,-3.1004,-3.1012,-3.1019,-3.0925,-3.0925,-3.0924,0,0,-3.1042,-3.1037,-3.1057,-3.1052,-3.1044,-3.103,-3.1035,-3.1021,-3.1014,-3.103,-3.1002,-3.1009,-3.1019,-3.1013,-3.1012,-3.1066,-3.1044,-3.1068,-3.1104,-3.1117,-3.1123,-3.1129,-3.1146,-3.1153,-3.1072,-3.1072,-3.1072,0,-3.1079,-3.1093,-3.107,-3.1083,-3.1083,-3.105,-3.107,-3.1066,-3.106,-3.106,-3.1044,-3.1053,-3.1046,-3.1067,-3.108,-3.1081,-3.1084,-3.1069,-3.1124,-3.113,-3.1135,-3.1151,-3.1158,-3.1075,-3.1075,-3.1074,-3.1074,0,-3.1138,-3.1148,-3.1165,-3.1159,-3.1162,-3.1178,-3.1156,-3.1161,-3.1144,-3.1132,-3.1147,-3.1137,-3.1137,-3.1141,-3.1125,-3.1159,-3.115,-3.1129,-3.1099,-3.1146,-3.1161,-3.1167,-3.1079,-3.1078,-3.1077,-3.1076,0,0,-3.1227,-3.1207,-3.1213,-3.1209,-3.1198,-3.1204,-3.1219,-3.1219,-3.1222,-3.1219,-3.1229,-3.1237,-3.1217,-3.1216,-3.1199,-3.121,-3.1251,-3.1188,-3.1187,-3.1198,-3.1285,-3.13,-3.1307,-3.1237,-3.1238,-3.1239,-3.1285,0,-3.128,-3.1303,-3.1282,-3.1309,-3.1317,-3.1285,-3.1297,-3.1291,-3.1279,-3.1283,-3.1269,-3.1275,-3.1249,-3.1248,-3.1258,-3.1244,-3.1268,-3.124,-3.1244,-3.1244,-3.1245,-3.1315,-3.1331,-3.1376,-3.1291,-3.1292,-3.1293,0,-3.1345,-3.1344,-3.1372,-3.1356,-3.1359,-3.137,-3.1367,-3.1372,-3.1363,-3.1354,-3.1351,-3.133,-3.1342,-3.1313,-3.1327,-3.1309,-3.1309,-3.1303,-3.1304,-3.1302,-3.1271,-3.1314,-3.139,-3.1396,-3.1302,-3.1301,-3.1301,0,-3.1405,-3.141,-3.1427,-3.1425,-3.1408,-3.1416,-3.1409,-3.1399,-3.1399,-3.1397,-3.1396,-3.1395,-3.1394,-3.1393,-3.1372,-3.1353,-3.1388,-3.1358,-3.1379,-3.1379,-3.1386,-3.1386,-3.1461,-3.139,-3.1389,-3.1389,-3.1389,0,-3.1465,-3.1483,-3.1453,-3.1463,-3.1481,-3.1456,-3.1475,-3.1465,-3.1456,-3.1462,-3.1435,-3.1442,-3.1414,-3.1417,-3.14,-3.1413,-3.1414,-3.1405,-3.14,-3.1406,-3.1407,-3.1405,-3.1401,-3.1391,-3.1391,-3.139,-3.139,0,-3.1535,-3.1515,-3.1531,-3.1513,-3.1509,-3.1523,-3.1507,-3.1515,-3.1501,-3.151,-3.151,-3.1488,-3.149,-3.1469,-3.1468,-3.1456,-3.1476,-3.1467,-3.1479,-3.1475,-3.1496,-3.1494,-3.1572,-3.158,-3.1505,-3.1506,-3.1506,0,-3.1574,-3.1587,-3.157,-3.1572,-3.1567,-3.1571,-3.1571,-3.1547,-3.1548,-3.1538,-3.1546,-3.1546,-3.1545,-3.155,-3.1533,-3.1531,-3.152,-3.1547,-3.1519,-3.1525,-3.1518,-3.1517,-3.1517,-3.1553,-3.1554,-3.1555,-3.1555,0,-3.1645,-3.1634,-3.1636,-3.1633,-3.1634,-3.1631,-3.1626,-3.1629,-3.1602,-3.1605,-3.1606,-3.1605,-3.1603,-3.1602,-3.1597,-3.1589,-3.1567,-3.1564,-3.1568,-3.1574,-3.158,-3.1575,-3.1493,-3.1562,-3.1562,-3.1561,-3.1561,-3.156,-3.1699,-3.1708,-3.1697,-3.1699,-3.1692,-3.1688,-3.1694,-3.168,-3.1681,-3.1677,-3.1663,-3.1666,-3.1655,-3.1646,-3.1639,-3.1641,-3.1628,-3.1634,-3.1636,-3.1637,-3.164,-3.1581,-3.164,-3.164,-3.164,-3.164,-3.1639,0,-3.1767,-3.1758,-3.176,-3.1753,-3.1754,-3.1734,-3.1727,-3.1729,-3.1733,-3.1724,-3.1723,-3.1724,-3.1723,-3.1706,-3.1702,-3.1707,-3.1697,-3.1707,-3.1705,-3.1703,-3.1654,-3.1649,-3.1715,-3.1715,-3.1715,-3.1715,-3.1715,-3.1715,-3.1802,-3.1816,-3.1803,-3.1813,-3.1803,-3.1807,-3.1804,-3.1799,-3.1792,-3.1795,-3.1794,-3.1782,-3.177,-3.1765,-3.1762,-3.1757,-3.1756,-3.177,-3.1761,-3.1714,-3.1707,-3.17,-3.1696,-3.177,-3.177,-3.181,-3.181,-3.1811]}]]